Regional Weather Roundup
Issued by NWS Charleston, SC

Current Version | Previous Version | Graphics & Text | Print | Product List | Glossary On
Versions: 1 2 3 4 5 6 7 8 9 10 11 12 13 14 15 16 17 18 19 20 21 22 23 24 25 26 27 28 29 30 31 32 33 34 35 36 37 38 39 40 41 42 43 44 45 46 47 48 49 50
000 ASUS42 KCHS 281513 RWRCHS REGIONAL WEATHER ROUNDUP NATIONAL WEATHER SERVICE CHARLESTON SC 1100 AM EDT THU APR 28 2016 NOTE: "FAIR" INDICATES FEW OR NO CLOUDS BELOW 12,000 FEET WITH NO SIGNIFICANT WEATHER AND/OR OBSTRUCTIONS TO VISIBILITY. NOT ALL STATIONS ARE QUALITY CONTROLLED. USE DATA WITH CAUTION... ESPECIALLY DEWPOINT OBSERVATIONS. SCZ027-030-031-034>040-042>050-281600- ...SOUTHEAST SOUTH CAROLINA... CITY SKY/WX TMP DP RH WIND PRES REMARKS N CHARLESTON CLOUDY 76 68 76 SW9 29.98S WATERFRONT PRK N/A 75 69 81 VRB3 29.96R MOUNT PLEASANT LGT RAIN 75 70 83 W6 29.98S JOHNS ISLAND PTSUNNY 75 72 88 SW5 29.98S PINOPOLIS N/A 72 66 83 VRB3 29.90R MONCKS CORNER PTSUNNY 72 64 78 SW3 29.98R SUMMERVILLE PTSUNNY 75 72 88 CALM 29.98S BEAUFORT MCAS PTSUNNY 80 70 71 S5 29.98S BEAUFORT ARPT FAIR 77 68 73 S6 29.98S HILTON HEAD IS PTSUNNY 81 72 74 SW7 30.00R WALTERBORO PTSUNNY 79 70 73 S3 29.98S ALLENDALE FAIR 79 68 69 VRB3 29.96S ...SOUTHERN MIDLANDS AND PEE DEE... CITY SKY/WX TMP DP RH WIND PRES REMARKS GEORGETOWN FAIR 73 66 78 SW6 29.99S KINGSTREE LGT RAIN 68 64 88 W3 29.97F ORANGEBURG PTSUNNY 78 66 66 S7 29.97S BARNWELL PTSUNNY 82 72 69 SW7 29.97S AIKEN CLOUDY 73 64 73 SW8 30.00S MANNING NOT AVBL COLUMBIA PTSUNNY 78 65 63 SW10 29.95S SUMTER CLOUDY 76 64 67 SW9 29.94S FLORENCE CLOUDY 73 64 73 SW9 29.96S MYRTLE BEACH NOT AVBL N MYRTLE BEACH CLOUDY 70 68 93 N6 29.98R $$ GAZ063-065-086>088-099>101-113>116-118-119-134>141-150-281600- ...SOUTHEAST GEORGIA... CITY SKY/WX TMP DP RH WIND PRES REMARKS SAVANNAH ARPT MOSUNNY 81 69 67 SW8 29.98S HUNTER AAF NOT AVBL FORT STEWART MOSUNNY 80 68 67 SW8 29.96R STATESBORO MOSUNNY 83 73 72 W6 29.97S SYLVANIA MOSUNNY 81 72 72 W8 29.98S CLAXTON FAIR 78 71 79 S8 29.98S ...CSRA...CENTRAL AND FAR SOUTHEAST GEORGIA... CITY SKY/WX TMP DP RH WIND PRES REMARKS THOMSON PTSUNNY 79 71 76 SW5 30.00R AUGUSTA-BUSH PTSUNNY 78 68 71 SW9 29.95S AUGUSTA-DANIEL PTSUNNY 78 67 68 VRB5 29.97S SWAINSBORO CLOUDY 73 68 83 W6 29.99S VIDALIA CLOUDY 77 68 73 SW10 29.99S EASTMAN PTSUNNY 77 75 93 W6 30.01R HAZLEHURST CLOUDY 77 73 87 S6 29.97F ALMA PTSUNNY 75 70 84 S3 29.99S WAYCROSS CLOUDY 76 70 82 W8 30.00S JESUP PTSUNNY 82 72 69 W6 29.99S BAXLEY CLOUDY 77 72 83 SW5 29.99S BRUNSWICK MOSUNNY 86 66 51 SW8 30.00S SAINT SIMONS MOSUNNY 79 65 62 SW12 29.99R $$ SCZ027-028-034-036>038-045-046-048>050-GAZ119-141-281600- ...LAKE AND SUPPLEMENTAL COASTAL OBSERVATIONS... STATION/POSITION TIME TEMP WIND PRES WAVE SWELL AIR SEA DIR/SP/G HT/PER HT/PER/DIR (UTC) (F) (DEG/KT/KT) (MB) (FT/S) (FT/S/D) WINYAH BAY NOT AVBL LAKE MURRAY 1400 72 220/ 7/ 11 1013.9S ACE BASIN NERRS NOT AVBL FORT PULASKI 1400 75 71 220/ 7/ 9 1015.4R SAPELO ISLAND 1400 75 220/ 9 1015.0S $$ ANZ835-935-AMZ111-154-330-350-352-354-370-450-454-472-281600- ...C-MAN AND BUOY OBSERVATIONS... STATION/POSITION TIME TEMP WIND PRES WAVE SWELL AIR SEA DIR/SP/G HT/PER HT/PER/DIR (UTC) (F) (DEG/KT/KT) (MB) (FT/S) (FT/S/D) BUOY 41004 1450 72 71 220/ 10/ 12 1015.3R 3/ 5 2/ 5 BUOY 41008 NOT AVBL FOLLY BEACH CMAN 1500 71 210/ 9/ 10 1015.5R CAPERS NEARSHORE 1408 70 69 220/ 8/ 10 1014.9F FRIPP NEARSHORE 1408 71 70 220/ 4/ 8 1014.9R STATION/POSITION TIME TEMP WIND PRES WAVE SWELL AIR SEA DIR/SP/G HT/PER HT/PER/DIR (UTC) (F) (DEG/KT/KT) (MB) (FT/S) (FT/S/D) 5E ST. MARYS GA 1421 71 N/A 2/ 4 FRYING PAN BUOY 1400 72 69 200/ 10/ 12 1015.1R BUOY 41025 1450 71 71 240/ 12/ 16 1014.7F 3/ 6 2/190/ 6 CAPE LOOKOUT NC 1400 73 210/ 9/ 12 1014.5S BUOY 41002 1450 71 71 170/ 4/ 6 1018.1R 2/11 2/ 60/11 BUOY 41010 1420 75 76 180/ 6/ 8 1017.2R ST AUGUSTINE FL 1500 79 70 270/ 8/ 9 1017.0R $$

USA.gov is the U.S. government's official web portal to all federal, state and local government web resources and services.